Theta_e
314 317 323 326 322 317 320 322 319 319 319 320 321 320 319 321 322 321 324 326 325 320 314 314 314 314 314 317 319 320 323 324 325 325 325 326 326 325 325 324 323 323 323 323 323 322 321 321 321
317 321 325 326 321 322 321 319 319 318 319 320 320 321 319 320 320 320 321 324 324 319 314 314 313 314 314 314 314 315 316 318 320 322 321 321 320 320 317 315 315 317 318 320 320 321 321 322 322
318 323 326 320 320 320 318 318 316 318 319 319 319 320 320 320 320 319 319 319 320 315 314 314 314 314 314 314 314 313 314 315 316 316 315 313 312 312 312 312 311 311 311 312 312 312 312 313 316
319 321 322 316 318 316 318 316 317 317 319 319 319 317 319 320 320 318 318 318 317 315 315 315 314 313 312 311 311 312 312 312 311 311 310 308 307 305 304 304 303 303 303 303 303 303 304 305 307
320 322 319 318 317 317 317 318 318 316 317 318 319 318 317 318 319 317 317 318 317 315 314 314 313 312 310 309 309 308 308 307 306 305 304 304 303 303 303 303 303 303 303 303 303 303 303 302 303
319 319 317 319 320 318 318 319 319 317 318 318 318 317 318 318 317 316 316 317 317 315 314 313 313 311 309 309 308 308 307 306 304 303 303 303 303 303 303 303 303 303 303 302 302 302 302 302 302
319 318 320 320 319 318 318 319 317 317 316 317 318 315 316 317 317 316 315 316 317 315 314 313 312 311 309 308 308 308 306 304 303 303 303 303 303 303 303 303 303 303 303 303 302 302 302 302 302
319 315 318 317 318 320 317 318 318 318 317 318 318 315 316 318 317 315 315 316 316 316 314 313 312 311 309 308 308 307 305 304 303 303 303 303 302 302 303 303 304 304 305 305 305 304 303 302 302
319 314 315 318 320 320 318 317 318 318 317 318 318 318 318 318 317 315 314 314 315 315 314 312 311 310 309 308 307 307 304 303 303 303 302 302 303 303 304 304 305 305 305 306 306 305 303 301 301
319 315 317 318 318 318 317 317 317 317 316 316 317 317 317 317 317 316 315 315 315 314 314 313 312 311 310 308 307 306 305 305 303 303 303 303 303 303 303 304 304 304 305 305 305 304 303 301 300
318 315 317 319 319 318 317 317 317 316 313 316 317 317 317 316 315 315 315 315 315 314 313 313 311 311 310 309 307 307 306 305 304 303 303 302 302 303 303 303 304 304 304 304 304 303 303 302 300
318 318 319 319 319 318 316 316 317 316 317 318 318 318 317 317 316 316 315 315 314 313 313 312 311 310 310 309 307 306 306 305 304 303 302 302 302 302 302 303 303 303 303 303 303 304 303 302 300
317 317 319 319 318 318 317 316 314 316 317 318 317 317 317 317 317 317 316 315 313 313 313 312 311 310 309 309 307 306 305 304 303 302 302 302 302 302 302 302 303 303 303 302 303 303 304 302 299
317 317 317 317 318 317 315 314 316 317 317 317 317 317 317 317 317 317 316 315 314 313 312 312 311 310 309 308 307 305 304 304 303 302 302 301 301 301 302 302 302 302 302 302 302 303 302 300 299
317 316 312 314 316 314 316 313 313 318 316 317 318 317 317 317 317 317 317 316 315 313 312 312 310 309 308 308 306 305 303 303 302 301 301 301 301 301 301 301 301 301 301 301 301 301 301 300 298
315 314 314 315 314 315 316 315 314 318 316 316 317 317 318 317 317 317 316 315 314 313 312 311 310 309 308 307 305 303 302 302 302 301 301 301 301 301 301 301 301 301 300 300 300 300 300 298 297
312 313 313 314 314 313 313 314 313 317 316 316 317 317 318 318 317 316 316 315 315 313 312 310 310 309 307 306 305 303 302 302 301 301 301 300 300 300 300 300 300 300 299 300 299 299 299 298 297
312 313 313 313 314 313 312 313 313 316 315 315 317 317 317 317 317 316 316 315 315 313 312 311 310 308 307 306 304 302 301 301 300 300 300 299 299 299 299 299 300 299 299 299 298 298 297 297 297
312 312 311 313 314 315 314 315 314 314 313 312 315 316 317 317 317 317 317 316 315 313 312 311 309 308 307 305 304 302 302 301 300 300 299 299 299 298 298 298 298 298 298 298 298 298 297 296 295
313 313 312 313 312 312 312 313 314 311 313 315 314 315 316 317 317 316 316 316 314 314 312 310 309 308 307 306 306 304 304 301 301 300 298 298 298 297 297 298 298 297 298 298 297 297 296 294 293
313 312 313 312 312 311 311 311 312 311 313 315 316 317 316 316 316 316 315 315 314 313 312 311 309 309 308 307 305 303 300 299 299 298 298 298 297 297 296 297 297 297 297 297 296 296 295 293 292
314 311 312 313 313 313 311 314 311 312 311 311 313 315 317 316 316 315 314 314 314 313 312 311 309 309 308 306 304 304 304 304 304 302 301 299 297 296 296 296 296 296 296 296 296 295 293 292 291
314 312 311 313 312 312 314 314 314 312 311 311 311 315 316 317 316 315 314 313 314 313 312 311 309 308 307 306 305 304 303 302 302 300 299 298 297 296 295 295 295 296 295 295 295 294 292 291 290
310 312 311 310 309 313 312 313 312 310 312 311 312 314 316 317 316 313 313 313 313 312 310 310 309 308 307 306 306 305 304 302 301 300 298 297 297 296 295 295 295 295 295 294 294 292 291 290 290
310 311 312 311 310 314 310 311 314 311 310 310 311 315 317 317 313 314 314 313 313 312 310 309 308 307 307 307 306 306 305 303 301 300 299 297 297 296 295 295 294 294 294 294 293 292 291 290 289
308 312 311 310 312 313 308 311 311 311 312 314 315 317 316 313 313 314 313 313 312 311 310 308 307 307 307 307 306 306 305 304 301 300 299 298 297 297 296 295 293 293 293 293 293 292 291 290 289
310 311 311 313 298 308 313 310 310 310 309 307 308 310 311 313 313 313 312 311 311 310 310 310 309 308 307 308 306 306 305 304 303 301 299 297 296 295 294 293 293 292 293 293 292 291 290 289 288
309 308 311 310 311 310 313 311 313 311 311 310 308 306 310 312 312 312 311 311 311 310 310 309 309 309 308 307 305 306 306 305 302 300 299 297 295 293 293 293 292 292 292 292 291 290 289 288 288
307 309 309 309 311 315 314 313 310 308 308 310 308 310 310 311 311 311 311 311 310 309 309 310 309 309 308 307 306 305 306 305 302 301 299 297 294 293 292 292 291 291 291 291 290 289 288 288 287
308 310 311 312 312 310 312 313 313 310 307 308 309 311 311 311 311 312 311 311 310 310 309 310 309 308 308 307 306 306 304 303 301 300 299 296 294 292 292 291 290 291 291 290 289 288 287 287 286
Wind_Speed
3 4 2 2 4 4 4 5 3 3 3 3 9 4 8 4 2 4 14 17 15 15 12 11 10 9 7 8 8 8 7 5 3 2 3 4 5 6 7 7 6 6 6 6 6 6 7 8 8
3 5 2 1 3 1 5 3 4 2 5 6 6 4 6 1 2 6 16 20 17 16 13 11 10 9 8 7 7 6 6 5 6 6 7 6 7 8 9 9 9 9 9 9 10 11 11 9 9
3 2 1 3 2 4 3 5 7 6 8 5 3 2 2 5 5 5 10 17 18 15 14 12 11 10 8 7 6 6 5 6 7 7 7 7 7 7 7 7 8 8 9 10 11 11 12 12 11
2 2 1 3 7 7 4 5 9 10 5 7 6 3 4 9 4 7 11 16 19 16 14 13 12 10 9 9 8 7 7 7 5 5 5 5 5 6 6 6 6 7 8 9 10 11 11 11 11
1 1 1 2 6 5 2 17 15 5 7 9 8 4 3 11 13 9 11 18 19 19 17 16 14 12 11 10 9 8 7 5 5 5 4 4 4 3 3 3 3 4 4 6 7 7 8 9 9
2 1 2 3 4 3 3 12 12 8 7 8 7 5 4 9 15 13 14 18 19 19 18 17 16 14 12 10 8 6 6 5 5 4 4 3 1 0 1 2 3 4 6 7 7 7 7 7 7
2 3 4 5 6 4 4 10 8 10 11 12 7 5 4 14 14 15 17 19 20 20 19 18 17 14 13 12 10 8 7 6 5 5 4 3 2 2 1 0 2 3 4 5 7 7 9 9 9
2 3 4 4 3 4 7 6 4 9 10 7 14 6 6 16 16 17 19 21 21 21 21 20 18 17 15 14 12 10 9 8 7 6 5 3 3 2 1 2 4 7 9 11 12 13 13 13 12
2 2 3 5 3 2 9 5 5 5 5 9 14 10 9 9 18 20 23 24 24 24 25 24 22 20 18 16 15 13 11 10 9 7 6 6 5 3 3 6 7 9 11 12 13 14 14 13 12
4 3 6 4 3 2 4 7 9 6 8 10 14 19 19 16 19 23 26 26 26 26 27 27 26 24 21 19 17 15 13 11 10 9 8 7 6 5 5 6 7 8 9 11 12 13 14 15 15
5 6 4 5 6 5 3 4 8 9 7 17 24 29 25 25 25 27 28 29 27 26 27 28 28 26 24 22 20 19 16 15 14 12 11 10 9 9 8 7 8 9 10 11 13 13 14 14 13
5 13 19 13 11 5 3 7 6 19 24 11 16 22 29 30 30 30 31 31 31 30 29 29 29 29 27 25 23 21 19 17 16 15 14 13 12 11 10 10 10 9 10 12 13 14 15 14 14
7 7 17 18 13 15 13 19 12 21 25 26 28 23 22 31 34 33 31 30 31 33 32 32 31 32 30 29 26 25 22 21 19 19 18 16 15 13 12 12 11 11 12 12 13 15 15 15 13
4 7 14 15 22 16 10 9 8 22 25 27 31 31 34 34 35 33 35 36 35 34 34 33 33 33 33 31 29 27 25 24 23 22 20 18 17 15 13 13 12 12 13 13 14 15 16 15 15
6 7 9 14 23 8 12 10 14 39 29 22 25 32 37 37 34 38 37 38 37 37 35 35 34 32 33 32 31 29 27 27 26 24 23 21 19 17 15 14 13 13 13 13 15 16 17 18 18
3 1 4 3 7 5 13 16 13 20 22 30 33 31 30 36 40 39 37 36 37 37 38 36 36 35 33 33 33 31 30 28 28 27 25 23 21 19 17 17 16 14 14 14 16 17 18 18 19
4 6 8 10 12 6 6 11 10 15 22 30 31 33 35 34 37 40 39 38 38 38 38 40 39 37 35 33 35 33 32 31 30 29 28 27 24 21 20 19 17 15 14 15 16 16 18 20 20
8 7 7 10 3 4 7 16 17 23 13 17 26 28 30 36 45 42 39 41 40 39 39 41 41 38 36 34 36 35 35 34 34 32 31 29 26 24 23 21 19 17 16 16 17 17 17 20 23
5 7 7 16 9 7 15 18 20 26 24 26 37 42 42 46 50 45 42 41 41 42 42 44 43 40 39 39 40 41 41 39 38 35 33 31 28 25 23 22 20 17 16 18 18 18 19 18 20
11 15 14 12 13 10 12 19 18 10 19 28 30 38 46 50 49 42 37 37 45 45 45 44 43 41 40 40 40 41 40 38 36 33 33 32 29 28 27 25 21 18 18 20 20 20 19 19 19
18 12 20 18 11 6 9 12 12 12 23 28 38 45 48 48 44 38 32 36 43 48 47 45 43 40 41 40 40 41 37 36 37 40 39 36 33 31 29 27 23 20 20 20 20 20 18 17 18
23 10 11 8 3 14 5 20 9 7 14 13 30 40 46 43 40 35 33 36 43 49 47 44 40 39 41 41 41 43 44 44 45 44 40 37 35 34 31 28 25 23 22 22 21 20 18 17 18
23 6 9 2 5 5 5 8 4 9 9 11 16 35 45 44 41 31 31 34 38 48 46 42 38 39 42 42 41 43 45 44 43 41 38 37 36 34 33 30 28 25 23 22 21 20 19 20 19
2 1 0 2 2 13 9 10 4 7 11 7 15 32 40 38 36 24 28 32 38 45 44 41 40 43 43 43 42 43 44 45 43 41 40 39 37 36 34 32 30 27 24 22 21 20 20 21 21
3 5 4 4 0 12 12 11 23 7 6 11 14 30 35 36 26 18 23 35 37 43 44 42 43 45 45 45 44 42 42 44 42 41 42 42 41 40 37 33 32 28 24 23 22 22 22 23 22
10 13 6 8 8 18 5 9 6 12 15 27 35 35 33 28 17 20 27 29 33 38 41 43 45 45 46 46 46 45 44 43 42 42 44 44 42 39 34 33 31 29 26 25 24 24 24 23 23
4 6 13 2 2 3 11 14 9 4 10 9 21 24 24 26 24 25 26 25 27 33 39 41 43 44 47 48 48 47 47 46 43 42 44 44 41 38 35 34 33 30 29 27 25 24 25 24 23
5 0 2 2 4 8 16 13 17 15 18 17 8 14 27 24 24 23 23 23 26 31 34 37 40 42 45 47 50 50 48 47 46 44 43 43 41 41 39 37 34 32 29 27 26 25 24 24 23
1 4 5 2 4 15 19 17 4 10 9 9 9 22 22 20 21 21 20 21 25 29 33 34 38 41 44 47 49 52 50 50 50 47 44 43 43 43 41 38 34 32 29 28 28 26 25 24 23
6 11 14 10 12 5 9 15 28 16 8 7 6 11 18 17 15 13 15 19 23 28 32 34 38 42 42 46 50 51 53 52 51 49 47 43 42 42 40 37 35 32 30 29 28 27 24 23 23
Wind_Direction
183 162 162 68 37 67 271 261 113 85 70 69 71 79 124 76 139 195 166 193 197 190 189 194 185 185 183 180 184 192 195 213 236 280 286 302 316 318 321 321 318 306 304 303 300 298 292 303 308
166 139 88 342 96 51 269 210 130 145 133 114 93 61 66 106 167 165 165 196 200 188 187 188 187 187 185 185 193 202 208 224 248 262 282 292 288 286 289 293 290 287 289 291 294 296 304 306 302
133 122 49 108 172 196 227 194 144 128 138 136 110 115 142 178 201 195 185 194 200 189 185 186 186 189 192 195 201 212 214 228 241 259 269 279 283 284 291 293 292 296 299 294 295 297 295 291 286
154 128 270 96 248 265 208 157 146 133 126 156 153 148 190 197 209 185 198 190 195 192 194 196 198 195 187 183 188 187 191 205 209 229 244 256 271 282 286 288 294 299 299 301 302 304 301 298 292
120 194 42 253 266 260 230 156 156 141 161 194 175 210 212 205 220 221 202 200 201 196 200 202 202 198 190 182 180 180 187 199 210 228 239 250 253 273 297 327 336 342 338 332 332 332 326 319 308
340 292 37 253 251 274 204 151 154 156 184 184 191 154 225 226 221 220 212 206 206 206 206 208 207 203 199 202 200 198 203 208 215 214 213 211 179 124 34 2 2 359 355 354 351 341 333 328 326
150 97 227 253 257 283 218 163 162 180 177 188 185 166 222 213 212 216 212 212 215 211 213 211 210 210 209 210 209 210 203 201 199 198 193 176 166 162 158 34 20 6 2 353 346 338 332 327 327
263 99 282 247 243 252 160 144 189 209 227 215 195 213 224 222 210 208 210 217 221 219 218 220 216 216 218 217 215 208 203 201 202 204 206 208 191 183 170 1 353 353 347 342 337 334 332 330 329
252 52 252 260 260 213 164 160 188 224 219 200 203 232 231 218 208 205 209 215 223 222 224 221 222 220 219 218 214 212 208 204 208 217 216 216 226 253 307 326 335 335 336 332 327 324 322 320 320
169 159 235 221 294 289 217 194 193 202 222 227 225 234 241 234 221 217 219 223 227 226 227 225 224 223 222 223 220 217 215 218 221 224 229 232 243 260 278 294 305 311 314 316 321 322 321 320 317
201 214 215 290 314 316 284 250 229 200 239 226 230 234 236 238 235 232 233 238 241 234 231 230 227 227 225 225 222 219 219 220 222 227 234 234 242 247 261 276 290 300 308 314 321 327 324 316 310
226 242 255 276 280 267 262 274 246 229 240 258 253 253 244 235 238 240 239 239 237 236 236 235 229 228 226 224 224 223 223 224 226 229 233 239 244 253 261 272 281 287 292 303 317 324 324 318 313
218 253 261 272 276 258 251 257 255 263 258 255 251 257 244 243 247 244 245 243 239 237 237 236 232 230 227 227 223 224 224 227 228 229 233 235 240 246 257 268 277 285 293 304 312 317 316 315 312
253 265 272 277 269 255 209 259 241 267 269 259 246 246 251 250 252 249 244 244 240 240 238 236 234 231 228 226 224 224 224 227 228 229 232 236 241 249 257 267 274 277 285 299 310 314 319 320 316
279 310 307 258 255 224 198 286 226 266 258 254 249 244 244 249 250 252 255 252 247 243 239 236 235 232 230 227 226 225 225 227 230 229 231 235 239 244 253 260 265 273 285 295 304 315 322 323 321
245 203 282 263 170 190 152 264 247 263 248 245 243 245 242 246 250 255 255 254 249 242 238 235 236 234 232 228 226 225 226 229 232 233 235 237 240 244 249 254 259 267 279 289 299 315 324 324 320
247 239 218 296 190 150 174 247 272 265 238 243 246 244 242 250 251 252 253 256 252 245 237 233 234 233 233 229 227 226 228 231 233 234 236 235 237 240 242 247 254 261 271 282 295 310 318 321 320
214 225 250 235 205 151 195 244 261 259 259 241 244 249 246 250 258 260 259 254 246 243 240 235 234 230 231 230 227 227 228 230 232 233 234 234 236 236 239 244 249 255 265 277 289 301 312 321 323
222 258 252 266 260 188 233 241 252 256 257 249 256 259 261 263 270 268 263 256 245 236 233 232 230 227 227 226 223 224 227 227 232 234 235 236 237 237 241 243 247 254 265 275 283 293 305 316 319
245 257 262 271 260 189 249 245 257 242 248 248 246 254 259 265 267 268 261 252 235 234 231 229 231 230 229 230 229 228 232 231 237 239 238 238 237 238 239 242 246 253 263 271 280 290 300 312 322
248 252 261 262 292 248 286 271 241 242 242 250 256 260 263 262 264 262 252 245 233 226 227 229 230 231 231 230 228 228 228 232 233 234 235 236 235 237 238 241 245 253 262 270 278 285 296 307 311
258 219 248 254 255 272 144 291 220 245 242 238 247 254 260 262 261 263 249 237 230 228 226 229 231 233 230 229 227 228 229 229 234 236 238 238 237 237 239 241 245 251 260 268 275 283 291 296 300
263 224 241 211 236 318 194 277 178 197 241 244 243 248 257 267 269 258 240 237 231 224 224 228 231 230 229 229 229 230 233 235 241 240 240 237 237 236 237 241 244 249 257 266 273 280 287 291 293
167 140 184 53 81 264 180 205 189 189 215 230 242 253 263 262 264 251 242 228 224 220 223 226 228 227 227 228 230 231 233 235 236 237 236 236 235 235 237 240 242 247 254 262 270 276 281 284 289
169 88 300 310 3 256 180 218 250 287 255 212 227 243 247 244 257 237 226 214 219 221 221 225 225 225 226 228 230 231 234 237 237 240 240 237 235 234 236 238 241 245 251 258 267 272 278 283 287
200 202 182 214 254 275 133 246 252 215 237 240 242 243 237 243 231 224 228 219 222 223 224 223 223 225 228 229 231 232 234 239 239 239 241 241 240 240 239 240 239 242 247 254 261 268 273 276 281
182 171 217 325 85 356 268 271 290 283 267 259 240 238 237 236 226 221 225 227 227 224 225 225 226 229 230 231 231 234 236 239 240 241 243 242 241 239 236 237 240 242 244 251 260 265 269 276 281
184 224 104 212 204 246 268 271 274 284 271 256 274 230 244 231 215 220 226 232 233 235 231 229 232 235 236 235 235 236 237 240 241 243 244 243 240 236 235 236 237 240 246 253 258 264 269 272 279
129 259 246 295 203 250 261 271 219 254 249 253 245 245 230 220 226 233 237 243 243 240 236 233 235 238 239 238 239 239 239 239 240 242 244 243 240 237 235 235 237 240 245 254 260 263 265 271 280
258 236 232 239 255 237 271 264 262 273 280 261 333 285 260 239 224 243 263 253 254 247 242 240 241 242 245 243 241 241 241 241 241 243 243 242 239 237 236 234 236 239 244 249 256 262 267 273 280